TimeHST,TemperatureF,Dew PointF,Humidity,Sea Level PressureIn,VisibilityMPH,Wind Direction,Wind SpeedMPH,Gust SpeedMPH,PrecipitationIn,Events,Conditions,WindDirDegrees,DateUTC
12:53 AM,70.3,68.0,92,29.93,10.0,Calm,Calm,-,0.00,,Overcast,0,2013-01-14 10:53:00
1:53 AM,73.0,68.2,85,29.93,10.0,Calm,Calm,-,N/A,,Overcast,0,2013-01-14 11:53:00
2:53 AM,72.3,68.2,87,29.91,7.0,WSW,4.6,-,0.00,Rain,Light Rain,250,2013-01-14 12:53:00
3:44 AM,71.6,66.2,83,29.91,10.0,SW,4.6,-,0.01,,Overcast,230,2013-01-14 13:44:00
3:53 AM,70.7,66.9,88,29.91,10.0,WSW,5.8,-,0.01,,Overcast,240,2013-01-14 13:53:00
4:34 AM,71.6,68.0,88,29.91,10.0,SW,8.1,-,N/A,,Overcast,220,2013-01-14 14:34:00
4:53 AM,71.2,68.0,89,29.91,8.0,South,8.1,-,0.01,Rain,Light Rain,170,2013-01-14 14:53:00
5:01 AM,71.6,68.0,88,29.91,1.8,SSW,3.5,-,0.10,Rain,Heavy Rain,200,2013-01-14 15:01:00
5:14 AM,71.6,68.0,88,29.91,3.0,SSW,4.6,-,0.22,Rain,Rain,210,2013-01-14 15:14:00
5:18 AM,71.6,68.0,88,29.91,3.0,SW,6.9,-,0.23,Rain,Rain,220,2013-01-14 15:18:00
5:23 AM,71.6,68.0,88,29.92,2.5,WSW,9.2,-,0.26,Rain,Heavy Rain,250,2013-01-14 15:23:00
5:40 AM,71.6,68.0,88,29.91,4.0,SSW,6.9,-,0.32,Rain,Light Rain,200,2013-01-14 15:40:00
5:53 AM,71.1,68.0,90,29.91,2.5,SW,4.6,-,0.37,Rain,Heavy Rain,220,2013-01-14 15:53:00
6:00 AM,69.8,66.2,88,29.92,2.0,Calm,Calm,-,0.05,Rain,Heavy Rain,0,2013-01-14 16:00:00
6:07 AM,69.8,66.2,88,29.92,1.8,WSW,5.8,-,0.11,Rain,Heavy Rain,250,2013-01-14 16:07:00
6:35 AM,69.8,66.2,88,29.93,2.0,West,4.6,-,0.49,Rain,Heavy Rain,260,2013-01-14 16:35:00
6:40 AM,69.8,66.2,88,29.92,3.0,West,3.5,-,0.52,Rain,Rain,260,2013-01-14 16:40:00
6:53 AM,70.0,66.9,90,29.92,3.0,WSW,5.8,-,0.52,Rain,Light Rain,240,2013-01-14 16:53:00
7:09 AM,69.8,66.2,88,29.94,5.0,SW,5.8,-,0.01,Rain,Rain,220,2013-01-14 17:09:00
7:53 AM,70.0,68.0,93,29.94,10.0,NNW,3.5,-,0.01,,Overcast,330,2013-01-14 17:53:00
8:20 AM,-9999,-9999,N/A,29.95,7.0,Calm,Calm,-,N/A,,Overcast,0,2013-01-14 18:20:00
8:41 AM,69.8,68.0,94,29.96,5.0,NW,3.5,-,N/A,,Overcast,320,2013-01-14 18:41:00
8:50 AM,71.6,69.8,94,29.96,8.0,NW,3.5,-,N/A,,Overcast,310,2013-01-14 18:50:00
8:53 AM,71.1,69.1,93,29.96,8.0,NW,3.5,-,N/A,,Overcast,310,2013-01-14 18:53:00
10:53 AM,75.0,70.0,84,29.95,10.0,NE,5.8,-,N/A,,Mostly Cloudy,40,2013-01-14 20:53:00
11:53 AM,77.0,68.0,74,29.94,10.0,ENE,8.1,-,N/A,,Clear,70,2013-01-14 21:53:00
12:35 PM,73.4,66.2,78,29.92,10.0,NNE,21.9,27.6,N/A,,Mostly Cloudy,20,2013-01-14 22:35:00
12:53 PM,72.0,64.9,78,29.91,10.0,NNE,19.6,-,N/A,,Overcast,20,2013-01-14 22:53:00
1:14 PM,71.6,64.4,78,29.92,10.0,NNE,19.6,27.6,N/A,,Overcast,20,2013-01-14 23:14:00
1:53 PM,73.9,66.0,76,29.91,10.0,NNE,19.6,-,N/A,,Scattered Clouds,20,2013-01-14 23:53:00
2:53 PM,73.0,64.9,76,29.91,10.0,North,18.4,23.0,N/A,,Partly Cloudy,10,2013-01-15 00:53:00
3:53 PM,72.0,64.9,78,29.92,10.0,NNE,18.4,-,N/A,,Clear,20,2013-01-15 01:53:00
4:53 PM,71.1,64.0,78,29.92,10.0,NNE,12.7,-,N/A,,Clear,30,2013-01-15 02:53:00
5:53 PM,70.0,62.1,76,29.93,10.0,NNE,12.7,-,N/A,,Partly Cloudy,30,2013-01-15 03:53:00
6:53 PM,69.1,62.1,78,29.94,10.0,NNE,5.8,-,N/A,,Overcast,30,2013-01-15 04:53:00
7:53 PM,70.0,63.0,78,29.94,10.0,NNE,6.9,-,N/A,,Overcast,20,2013-01-15 05:53:00
8:53 PM,68.0,62.1,81,29.95,10.0,NW,3.5,-,N/A,,Overcast,310,2013-01-15 06:53:00
9:53 PM,69.1,63.0,81,29.95,10.0,North,15.0,-,N/A,,Overcast,10,2013-01-15 07:53:00
10:25 PM,68.0,60.8,78,29.96,10.0,North,11.5,-,N/A,,Overcast,360,2013-01-15 08:25:00
10:53 PM,68.0,61.0,78,29.96,10.0,North,10.4,-,N/A,,Overcast,360,2013-01-15 08:53:00
11:53 PM,68.0,60.1,76,29.94,10.0,North,10.4,-,N/A,,Overcast,350,2013-01-15 09:53:00